Regional Weather Roundup
Issued by NWS Little Rock, AR

Home | Current Version | Previous Version | Text Only | Print | Product List | Glossary Off
Versions: 1 2 3 4 5 6 7 8 9 10 11 12 13 14 15 16 17 18 19 20 21 22 23 24 25 26 27 28 29 30 31 32 33 34 35 36 37 38 39 40 41 42 43 44 45 46 47 48 49 50

863
ASUS44 KLZK 270605
RWRLZK

WEATHER ROUNDUP FOR ARKANSAS
NATIONAL WEATHER SERVICE LITTLE ROCK AR
100 AM CDT WED JUL 27 2016

NOTE: "FAIR" INDICATES FEW OR NO CLOUDS BELOW 12,000 FEET WITH NO
SIGNIFICANT WEATHER AND/OR OBSTRUCTIONS TO VISIBILITY.

ARZ001-003-010-029-270700-
NORTHWEST ARKANSAS

CITY           SKY/WX    TMP DP  RH WIND       PRES   REMARKS
FAYETTEVILLE   CLOUDY    72  72 100 CALM      29.98F
6HR MIN TEMP:  71; 6HR MAX TEMP:  73; 6HR PCP:  0.18;

FORT SMITH     PTCLDY    77  73  87 E5        29.93F
6HR MIN TEMP:  77; 6HR MAX TEMP:  84; 6HR PCP: TRACE;

HARRISON       PTCLDY    73  72  96 S5        30.00S
6HR MIN TEMP:  73; 6HR MAX TEMP:  77; 6HR PCP: TRACE;

BENTONVILLE    PTCLDY    73  68  83 E3        29.99F
6HR MIN TEMP:  73; 6HR MAX TEMP:  75; 6HR PCP:  0.10;

ROGERS         CLOUDY    73  72  96 SE3       29.99S
6HR MIN TEMP:  73; 6HR MAX TEMP:  76; 6HR PCP:  0.06;

SILOAM SPGS    CLOUDY    72  64  78 CALM      29.99S
6HR MIN TEMP:  72; 6HR MAX TEMP:  77; 6HR PCP:  0.01;

HIGHFILL       CLOUDY    73  72  96 NE3       29.98S
6HR MIN TEMP:  73; 6HR MAX TEMP:  77; 6HR PCP:  0.09;

$$

ARZ004-005-016-270700-
NORTH CENTRAL ARKANSAS

CITY           SKY/WX    TMP DP  RH WIND       PRES   REMARKS
BATESVILLE     PTCLDY    73  72  94 CALM      29.96F
6HR MIN TEMP:  73; 6HR MAX TEMP:  82;

FLIPPIN        PTCLDY    73  70  88 CALM      29.95F
6HR MIN TEMP:  73; 6HR MAX TEMP:  79;

MTN HOME       FOG       74  74 100 CALM      29.98S VSB 1/4
6HR MIN TEMP:  74; 6HR MAX TEMP:  77;

$$

ARZ040-041-270700-
WEST CENTRAL ARKANSAS

CITY           SKY/WX    TMP DP  RH WIND       PRES   REMARKS
MENA           PTCLDY    75  73  94 CALM      29.97S
MOUNT IDA      CLOUDY    76  75  97 CALM      29.93F
6HR MIN TEMP:  76; 6HR MAX TEMP:  92;

$$

ARZ009-017-025-026-028-270700-
NORTHEAST ARKANSAS

CITY           SKY/WX    TMP DP  RH WIND       PRES   REMARKS
CORNING          N/A     75  75 100 NE5       29.96F
JONESBORO      CLEAR     77  74  90 NE6       29.95S
6HR MIN TEMP:  77; 6HR MAX TEMP:  91;

NEWPORT        PTCLDY    78  77  97 NE6       29.96F
6HR MIN TEMP:  77; 6HR MAX TEMP:  89;

WALNUT RIDGE   CLOUDY    75  72  88 NE5       29.95F
6HR MIN TEMP:  75; 6HR MAX TEMP:  84;

BLYTHEVILLE    CLEAR     78  75  90 E6        29.95F
6HR MIN TEMP:  77; 6HR MAX TEMP:  87;

$$

ARZ022-023-033-042-044-270700-
CENTRAL ARKANSAS

CITY           SKY/WX    TMP DP  RH WIND       PRES   REMARKS
LITTLE ROCK    PTCLDY    84  72  67 CALM      29.92F HX  89
6HR MIN TEMP:  83; 6HR MAX TEMP:  94;

JACKSONVILLE   PTCLDY    77  74  88 CALM      29.93S
6HR MIN TEMP:  77; 6HR MAX TEMP:  93;

SEARCY         PTCLDY    78  75  90 N5        29.95F
6HR MIN TEMP:  78; 6HR MAX TEMP:  93;

HOT SPRINGS    PTCLDY    79  72  79 CALM      29.94S
6HR MIN TEMP:  79; 6HR MAX TEMP:  92;

RUSSELLVILLE   PTCLDY    74  74 100 W3        29.94S
6HR MIN TEMP:  74; 6HR MAX TEMP:  85;

$$

ARZ036-270700-
EAST ARKANSAS

CITY           SKY/WX    TMP DP  RH WIND       PRES   REMARKS
WEST MEMPHIS   CLEAR     76  75  97 NE3       29.93F
6HR MIN TEMP:  73; 6HR MAX TEMP:  79; 6HR PCP: TRACE;

$$

ARZ050-053-066-070-073-270700-
SOUTHWEST ARKANSAS

CITY           SKY/WX    TMP DP  RH WIND       PRES   REMARKS
CAMDEN         PTCLDY    73  72  94 CALM      29.92F FOG
TEXARKANA      CLEAR     80  72  76 S10       29.92S
6HR MIN TEMP:  78; 6HR MAX TEMP:  94;

EL DORADO      CLEAR     75  71  87 CALM      29.93F
6HR MIN TEMP:  75; 6HR MAX TEMP:  92;

DE QUEEN       MOCLDY    79  74  84 E3        29.90S
6HR MIN TEMP:  78; 6HR MAX TEMP:  94;

$$

ARZ056-057-069-270700-
SOUTHEAST ARKANSAS

CITY           SKY/WX    TMP DP  RH WIND       PRES   REMARKS
PINE BLUFF     PTCLDY    78  74  87 S5        29.93S
6HR MIN TEMP:  78; 6HR MAX TEMP:  91;

STUTTGART      CLEAR     81  70  69 SE7       29.93S
6HR MIN TEMP:  81; 6HR MAX TEMP:  93;

MONTICELLO     CLOUDY    79  74  84 CALM      29.94F
6HR MIN TEMP:  79; 6HR MAX TEMP:  93;


$$






USA.gov is the U.S. government's official web portal to all federal, state and local government web resources and services.